User: anonymous   Login
Location: The Top Of The Sky Mini Observatory
(41.4300°N, 81.2300°W)
Time: 12:45:57
(UTC-05:00)
Language:

Iridium 86 - Orbit

View from above orbital plane
View from above orbital plane
View from above satellite
View from above satellite

Ground track
Ground track

The orbit data is extracted from the following two-line orbital elements,

1 25528U 98066B   14328.30810028  .00000400  00000-0  13581-3 0  2416
2 25528 086.3964 021.0724 0002329 115.3886 244.7551 14.34219897845221
Epoch (UTC): 24 November 2014 07:23:39
Eccentricity: 0.0002329
inclination: 86.3964°
perigee height: 776 km
apogee height: 779 km
right ascension of ascending node: 21.0724°
argument of perigee: 115.3886°
revolutions per day: 14.34219897
mean anomaly at epoch: 244.7551°
orbit number at epoch: 84522

The dashed part of the orbit path shows where the satellite is in the earth's shadow,  

DLR